ATLAS AGENA B DEB, 630

Orbit data source: Space-Track

ATLAS AGENA B DEB, 630 is space debris in LEO originally from a launch on Fri, 19 Jul 1963 UTC launched from the Air Force Western Test Range (AFWTR). Debris objects in space refer to the collection of defunct objects orbiting the Earth. Examples of debris include non-operational satellites, rocket bodies, and fragments generated from explosions, collisions, or faulty payload assembly.

Loading next visibility...
ATLAS AGENA B DEB details
Identifier
630, 1963-030C
Orbit
LEO
Last TLE update1 day ago
Origin
Flag of USUSAF SSD (US)
ManufacturerUnknown
MissionSpacecraft
Bus & MotorUnknown
Mass~10 kg wet, ~10 kg dry
Launch date (UTC)
1963-07-19 (62 years ago)
Launch vehicleUnknown
Launch site
Air Force Western Test Range (AFWTR)
Object type
Payload
Rocket body
Debris
Shape & HBRBox, 1.5 m
Radar Cross Section1.575 m², Medium (>0.1 m² and < 1m²)

Expand to show TLE details & history

TLE from 1 day ago
0 ATLAS AGENA B DEB
1 00630U 63030C   25017.57848654  .00000003  00000-0  26645-3 0  9992
2 00630  88.4147 231.3120 0045032  52.8545 307.6407  8.59858953930513
Epoch: 2025-01-17T13:53Z
Definitive object data (Epoch: 2025-01-17T13:53:01.237Z)
Latitude-0.00008°
Longitude-94.18327°
Altitude3,660.797 km
Speed6.311 km/s
True Right ascension15h 25m 14s
True Declination0° 00' 00"
Sunlit
Object was in daylight at TLE epoch
Visualization TLE readout
Latitude-52.89364°
Longitude-96.3357°
Altitude3,717.616 km
Speed6.281 km/s
Apparent Right ascension11h 45m 41s
Apparent Declination-70° 12' 30"
Sunlit
Object is in daylight
Visualization observer readout
Local Sidereal Time18:16:43
Azimuth205.854° SW
Elevation-39.703°
Doppler factor1
Orbital elements
Apogee altitude3,729.301 km
Perigee altitude3,638.678 km
Semi-major axis10,062.126 km
Eccentricity0.0045032
Inclination88.4147°
RAAN231.312°
Arg. of periapsis52.8545°
True anomaly307.23067°
Mean anomaly307.6407°
Eccentric anomaly307.43583°
Mean motion2.15035 °/min
BSTAR0.00026645
Orbital period167.41 mins
Loading maneuver chart data...
Loading historical data...
Loading historical data...
Loading historical data...
Loading historical data...
Loading historical data...
Loading historical data...
Loading historical data...

ATLAS AGENA B DEB Visibility forecast

Observer location: undefined°, undefined

Span
Click to sort rows by Start time (UTC) header in descending order
Start Az.
Max El. time (UTC)
Max El. Az.
Max El.
End time (UTC)
End Az.
16 mins2025-01-18 18:04:42.772Z281.233° WNW2025-01-18 18:12:42.772Z308.393° NW13.586°2025-01-18 18:20:42.772Z335.643° NNW
33 mins2025-01-19 00:10:42.772Z9.572° NNE2025-01-19 00:26:42.772Z73.108° E31.377°2025-01-19 00:43:42.772Z137.579° SSE
35 mins2025-01-19 02:57:42.772Z355.337° N2025-01-19 03:14:42.772Z284.632° WNW42.086°2025-01-19 03:32:42.772Z205.173° SW
13 mins2025-01-19 05:49:42.772Z332.928° NNW2025-01-19 05:55:42.772Z312.753° NW13.307°2025-01-19 06:02:42.772Z289.401° WNW
10 mins2025-01-19 10:54:42.772Z62.119° ENE2025-01-19 10:59:42.772Z45.113° ENE12.506°2025-01-19 11:04:42.772Z28.331° NE
35 mins2025-01-19 13:22:42.772Z153.111° SSE2025-01-19 13:39:42.772Z80.951° E41.604°2025-01-19 13:57:42.772Z4.491° NNE
32 mins2025-01-19 16:12:42.772Z224.073° SW2025-01-19 16:27:42.772Z284.311° WNW31.968°2025-01-19 16:44:42.772Z352.141° N
|